Tracking 19920 objects as of 13-Oct-2019
HD Live streaming from Space Station
objects crossing your sky now

BEIDOU 3M23

Track BEIDOU 3M23 now!
BEIDOU 3M23 is classified as:


NORAD ID: 44542
Int'l Code: 2019-061A
Perigee: 21,553.1 km
Apogee: 22,115.8 km
Inclination: 55.0 °
Period: 785.7 minutes
Semi major axis: 28205 km
RCS: Unknown
Launch date: September 22, 2019
Source: People's Republic of China (PRC)
Launch site: Xichang Space Center, China (XSC)
aabbcc
Your satellite tracking list
Your tracking list is empty




NASA's NSSDC Master Catalog

Two Line Element Set (TLE):
1 44542U 19061A   19286.06731914 -.00000014  00000-0  10000-3 0  9993
2 44542  55.0118 265.4229 0099752 175.4147  70.2991  1.83275516   367
Source of the keplerian elements: AFSPC